IRIDIUM 33 DEB, 33870

Orbit data source: Space-Track

IRIDIUM 33 DEB, 33870 is space debris in LEO originally from a launch on Sun, 14 Sep 1997 UTC launched from the Tyuratam Missile And Space Complex (TTMTR). The debris from Iridium 33, an American commercial communications satellite, has been tracked extensively since its accidental collision with the defunct Russian satellite Cosmos 2251 in 2009. This event, occurring at high speed in low Earth orbit (LEO), generated thousands of pieces of space debris, significantly increasing the risk of further collisions. The Iridium 33 debris cloud has impacted space traffic management and orbital debris mitigation strategies, making it a subject of ongoing study in space situational awareness.

Loading next visibility...
Identifier
33870, 1997-051AP
Orbit
LEO
Country
Flag of USUS
Related business
Manufacturer
Unknown
Mission
Spacecraft
Bus & Motor
Unknown
Mass
Unknown
Launch date (UTC)
1997-09-14 (28 years ago)
Launch vehicle
Unknown
Launch site
Tyuratam Missile And Space Complex (TTMTR)
Object type
Payload
Rocket body
Debris
Shape & HBR
Unknown shape, 0.1 m
Radar Cross Section
Small (<0.1 m²)

Expand to show TLE details & history
Last TLE update: 1 day ago

TLE from 1 day ago
0 IRIDIUM 33 DEB
1 33870U 97051AP  26036.97946197  .00004325  00000-0  12010-2 0  9992
2 33870  86.3732  34.5634 0021055   6.7667  53.8821 14.46199424889356
Epoch: 2026-02-05T23:30Z
TLE epoch observation values (Epoch: 2026-02-05T23:30:25.514Z)
Latitude
60.73304°
Longitude
-87.70755°
Altitude
739.726 km
Speed
7.495 km/s
True Right ascension
02h 44m 05s
True Declination
60° 35' 09"
Sunlit
Object was in daylight at epoch
Visualization orbit readout
Latitude
Unknown
Longitude
Unknown
Altitude
Unknown
Speed
Unknown
Apparent Right ascension
Unknown
Apparent Declination
Unknown
Sunlit
N/A
Visualization observer readout
Local Sidereal Time
06:17:11
Azimuth
Unknown
Elevation
Unknown
Doppler factor
Unknown
Orbital elements
Apogee altitude
750.014 km
Perigee altitude
720.06 km
Semi-major axis
7,113.174 km
Eccentricity
0.00211
Inclination
86.3732°
RAAN
34.5634°
Arg. of periapsis
6.7667°
True anomaly
54.0773°
Mean anomaly
53.8821°
Eccentric anomaly
53.97967°
Mean motion
3.61783 °/min
Orbital period
99.51 mins
BSTAR
0.001201
Loading maneuver chart data...
Computing Atmospheric mass density...

Documentation

Showing up to 5 results
|